hsbc.com.eg alexa rank chart, hsbc.com.eg alexa rank daily changes

hsbc.com.eg alexa rank chart, hsbc.com.eg alexa rank daily changes

hsbc.com.eg
Actual rank:
40 371

RANK HISTORY

Date Rank Diff
2017/08/17 40 371 -227
2017/08/16 40 598 -351
2017/08/15 40 949 -13
2017/08/14 40 962 +417
2017/08/13 40 545 +176
2017/08/12 40 369 +141
2017/08/11 40 228 +513
2017/08/10 39 715 +103
2017/08/09 39 612 -76
2017/08/08 39 688 +306
2017/08/07 39 382 +815
2017/08/06 38 567 +1 049
2017/08/05 37 518 +757
2017/08/04 36 761 +763
2017/08/03 35 998 -133
2017/08/02 36 131 -214
2017/08/01 36 345 +30
2017/07/31 36 315 -57
2017/07/30 36 372 +385
2017/07/29 35 987 -656
2017/07/28 36 643 -599
2017/07/27 37 242 -817
2017/07/26 38 059 -45
2017/07/25 38 104 +447
2017/07/24 37 657 +798
2017/07/23 36 859 +765
2017/07/22 36 094 +499
2017/07/21 35 595 +126
2017/07/20 35 469 +283
2017/07/19 35 186 +33
2017/07/18 35 153 -420
2017/07/17 35 573 +561
2017/07/16 35 012 +507
2017/07/15 34 505 +202
2017/07/14 34 303 +136
2017/07/13 34 167 +108
2017/07/12 34 059 -111
2017/07/11 34 170 -484
2017/07/10 34 654 +65
2017/07/09 34 589 +356
2017/07/08 34 233 -42
2017/07/07 34 275 -436
2017/07/06 34 711 +173
2017/07/05 34 538 -729
2017/07/04 35 267 -728
2017/07/03 35 995 +488
2017/07/02 35 507 +567
2017/07/01 34 940 +1 367
2017/06/30 33 573 +219
2017/06/29 33 354 +220
2017/06/28 33 134 +151
2017/06/27 32 983 +779
2017/06/26 32 204 +325
2017/06/25 31 879 +147
2017/06/24 31 732 -291
2017/06/23 32 023 -268
2017/06/22 32 291 -729
2017/06/21 33 020 -499
2017/06/20 33 519 -329
2017/06/19 33 848 -187
2017/06/18 34 035

WIDGET FOR YOUR SITE

DOMAINS WITH THE NEAREST RANK

Domain Rank
91p09.space 40 366
anl.gov 40 367
flymeos.com 40 368
biansechong.com 40 369
chordzaa.com 40 370
hsbc.com.eg 40 371
tk-kit.ru 40 372
kabelmail.de 40 373
britishcouncil.in 40 374
unizg.hr 40 375
cwer.ws 40 376

DOMAINS WITH THE NEAREST RANK BY TLD .com.eg

Domain Rank
hsbc.com.eg 40 371
tripadvisor.com.eg 40 957